This is the latest recevied weather packets stored in our database for station/object KE5OYL. If no packets are shown the sender has not sent any weather packets the latest 10 day(s).
| Time | Temp. | Humidity | Pressure | Rain* | Wind** | Luminosity | Snow |
|---|---|---|---|---|---|---|---|
| 1777734191 | 18.33° C | 57% | 1022.8 hPa | 0 mm | - | 477 W/m² | - |
| 1777733887 | 18.33° C | 57% | 1022.4 hPa | 0 mm | - | 461 W/m² | - |
| 1777733584 | 18.89° C | 56% | 1022.6 hPa | 0 mm | - | 449 W/m² | - |
| 1777733280 | 17.78° C | 60% | 1022.6 hPa | 0 mm | - | 432 W/m² | - |
| 1777732977 | 17.22° C | 62% | 1022.7 hPa | 0 mm | - | 417 W/m² | - |
| 1777732673 | 17.22° C | 63% | 1022.4 hPa | 0 mm | - | 400 W/m² | - |
| 1777732370 | 17.22° C | 65% | 1022.5 hPa | 0 mm | - | 386 W/m² | - |
| 1777732068 | 16.67° C | 66% | 1022.4 hPa | 0 mm | - | 371 W/m² | - |
| 1777731765 | 16.67° C | 67% | 1022.4 hPa | 0 mm | - | 355 W/m² | - |
| 1777731461 | 16.67° C | 67% | 1022.3 hPa | 0 mm | - | 337 W/m² | - |
| 1777731160 | 16.67° C | 67% | 1022.2 hPa | 0 mm | - | 316 W/m² | - |
| 1777730858 | 16.11° C | 69% | 1022.4 hPa | 0 mm | - | 302 W/m² | - |
| 1777730555 | 15.56° C | 70% | 1022.3 hPa | 0 mm | - | 285 W/m² | - |
| 1777730250 | 16.11° C | 71% | 1022.2 hPa | 0 mm | - | 268 W/m² | - |
| 1777729948 | 15.56° C | 72% | 1022.2 hPa | 0 mm | - | 253 W/m² | - |
| 1777729644 | 15.56° C | 72% | 1022.3 hPa | 0 mm | - | 236 W/m² | - |
| 1777729341 | 15.56° C | 74% | 1022 hPa | 0 mm | - | 219 W/m² | - |
| 1777729037 | 15° C | 75% | 1021.8 hPa | 0 mm | - | 204 W/m² | - |
| 1777728734 | 15° C | 76% | 1022.1 hPa | 0 mm | - | 189 W/m² | - |
| 1777728431 | 14.44° C | 78% | 1022.5 hPa | 0 mm | - | 175 W/m² | - |
| 1777728128 | 14.44° C | 78% | 1021.9 hPa | 0 mm | - | 160 W/m² | - |
| 1777727825 | 13.89° C | 79% | 1021.9 hPa | 0 mm | - | 148 W/m² | - |
| 1777727523 | 13.89° C | 80% | 1022 hPa | 0 mm | - | 134 W/m² | - |
| 1777727219 | 13.89° C | 80% | 1022.1 hPa | 0 mm | - | 122 W/m² | - |
| 1777726917 | 13.33° C | 81% | 1022.2 hPa | 0 mm | - | 109 W/m² | - |
* Rain latest hour (hover to see other rain measurements)
** Current wind speed in m/s (hover to see current wind gust speed)